Location: Lake Runnemede Observatory
(43.4843°N, 72.3851°W)
Time: 17:35:13
(UTC-04:00)

Amateur Radio Satellites - All Passes

Search period start: 17 September 2014 17:05
Search period end: 18 September 2014 17:05
Location: Lake Runnemede Observatory, 43.4843°N, 72.3851°W

Satellite Date Start Highest point End Downlink Frequencies (MHz)
Time Altitude Azimuth
OPAL 17 Sep 17:30:10 17:35:17 57° 103° (ESE) 17:40:19 ?
Hamsat 17 Sep 17:42:28 17:46:48 67° 75° (ENE) 17:51:09 145.90 MHz
Saudisat 1A 17 Sep 17:44:55 17:49:09 49° 119° (ESE) 17:53:25 436.775 MHz
MaSat-1 17 Sep 17:49:21 17:52:59 31° 53° (NE) 17:56:09 437.345 MHz
KITSAT 1 17 Sep 18:14:10 18:17:51 14° 99° (E) 18:21:31 435.175 FM
AO-7 17 Sep 18:36:06 18:38:39 12° 275° (W) 18:41:14 29.400 - 29.500 MHz
JAS-2 17 Sep 18:42:18 18:47:05 33° 263° (W) 18:51:45 435.800 - 435.900 CW/SSB, 435.910 FM
OPAL 17 Sep 19:09:56 19:13:44 21° 301° (WNW) 19:17:30 ?
SO-67 17 Sep 19:13:26 19:16:53 79° 258° (WSW) 19:20:21 435.3500 MHz FM
Hamsat 17 Sep 19:21:36 19:23:12 12° 271° (W) 19:24:49 145.90 MHz
Saudisat 1A 17 Sep 19:25:24 19:28:58 24° 318° (NW) 19:32:34 436.775 MHz
MaSat-1 17 Sep 19:26:42 19:29:28 19° 257° (WSW) 19:31:57 437.345 MHz
Sapphire 17 Sep 19:45:40 19:47:40 12° 32° (NNE) 19:49:40 437.095 MHz 1200 baud AX-25 AFSK
STRAND 1 17 Sep 19:46:02 19:51:11 80° 104° (ESE) 19:56:20 ?
HO-68 17 Sep 19:53:43 20:00:06 37° 62° (ENE) 20:06:30 435.675 MHz FM
KITSAT 1 17 Sep 20:03:47 20:11:48 72° 117° (ESE) 20:19:51 435.175 FM
PCSat 17 Sep 20:11:59 20:15:36 18° 39° (NE) 20:19:12 145.825 MHz
Oscar 11 17 Sep 20:44:47 20:48:06 22° 66° (ENE) 20:51:26 145.825 FM, Beacon 2401.500 USB
UKube-1 17 Sep 20:58:24 21:02:28 41° 70° (ENE) 21:06:34 145.840 MHz, 145.915 MHz
AO-40 17 Sep 21:19:41 03:10:47 39° 165° (SSE) 04:57:43 Beacon 2401.320
STRAND 1 17 Sep 21:26:55 21:29:43 15° 301° (WNW) 21:32:31 ?
Sapphire 17 Sep 21:27:09 21:32:27 50° 54° (NE) 21:37:42 437.095 MHz 1200 baud AX-25 AFSK
HO-68 17 Sep 21:40:50 21:47:38 47° 260° (W) 21:54:30 435.675 MHz FM
PCSat 17 Sep 21:54:22 21:59:51 85° 60° (ENE) 22:05:16 145.825 MHz
KITSAT 1 17 Sep 22:00:43 22:07:53 34° 320° (NW) 22:15:05 435.175 FM
FUNcube-1 17 Sep 22:03:35 22:07:53 58° 73° (ENE) 22:12:19 145.950 - 145.970 MHz USB
Oscar 11 17 Sep 22:19:59 22:24:03 38° 262° (W) 22:28:09 145.825 FM, Beacon 2401.500 USB
UKube-1 17 Sep 22:35:47 22:38:51 19° 267° (W) 22:41:56 145.840 MHz, 145.915 MHz
SO-50 17 Sep 22:49:20 22:53:37 47° 118° (ESE) 22:58:01 436.795 FM
Sapphire 17 Sep 23:11:10 23:15:33 26° 252° (WSW) 23:19:56 437.095 MHz 1200 baud AX-25 AFSK
PCSat 17 Sep 23:39:51 23:42:29 14° 257° (WSW) 23:45:06 145.825 MHz
FUNcube-1 17 Sep 23:42:20 23:44:41 14° 271° (W) 23:47:04 145.950 - 145.970 MHz USB
KITSAT 1 18 Sep 00:01:56 00:06:16 15° 348° (NNW) 00:10:36 435.175 FM
SO-50 18 Sep 00:30:38 00:34:24 25° 318° (NW) 00:38:16 436.795 FM
Saudisat 1A 18 Sep 00:32:46 00:34:15 11° 31° (NNE) 00:35:44 436.775 MHz
UOSAT-12 18 Sep 00:38:17 00:42:44 50° 119° (ESE) 00:47:18 437.025 FM, 437.400 FM
Oscar 16 18 Sep 01:29:49 01:33:52 23° 93° (E) 01:37:53 437.025 USB, Beacon 2401.1428
AO-Echo 18 Sep 01:58:45 02:02:15 20° 93° (E) 02:05:47 ?
KITSAT 1 18 Sep 02:00:39 02:05:40 17° 19° (NNE) 02:10:40 435.175 FM
ITAMSAT 1 18 Sep 02:09:10 02:13:10 22° 93° (E) 02:17:09 435.822 SSB
Saudisat 1A 18 Sep 02:10:27 02:14:48 56° 52° (NE) 02:19:08 436.775 MHz
Uribyol 2 18 Sep 02:13:39 02:17:58 26° 94° (E) 02:22:17 436.500 FM
UOSAT-12 18 Sep 02:19:15 02:23:09 26° 318° (NW) 02:27:06 437.025 FM, 437.400 FM
TMSAT-1 18 Sep 02:26:29 02:27:41 11° 87° (E) 02:28:52 436.925 FM
Oscar 19 18 Sep 02:29:47 02:35:00 78° 103° (ESE) 02:40:08 437.125 CW, 437.150 USB
AO-27 18 Sep 02:42:57 02:47:58 45° 99° (E) 02:52:57 436.795 MHz FM
JAS-1B 18 Sep 03:03:31 03:09:22 71° 103° (ESE) 03:15:01 435.800 - 435.900 CW/SSB
Oscar 16 18 Sep 03:08:29 03:13:27 47° 290° (WNW) 03:18:21 437.025 USB, Beacon 2401.1428
OPAL 18 Sep 03:09:44 03:13:03 17° 57° (ENE) 03:16:23 ?
ISS 18 Sep 03:16:50 03:19:53 34° 139° (SE) 03:22:57 145.800 FM
Gurwin Techsat 1B 18 Sep 03:24:48 03:30:00 53° 100° (E) 03:35:10 435.225 FM
AO-Echo 18 Sep 03:36:38 03:41:16 49° 289° (WNW) 03:46:00 ?
ITAMSAT 1 18 Sep 03:47:54 03:52:54 49° 290° (WNW) 03:57:55 435.822 SSB
Saudisat 1A 18 Sep 03:51:04 03:53:58 17° 249° (WSW) 03:56:51 436.775 MHz
Uribyol 2 18 Sep 03:52:41 03:57:35 42° 291° (WNW) 04:02:29 436.500 FM
KITSAT 1 18 Sep 03:55:50 04:03:31 44° 46° (NE) 04:11:08 435.175 FM
TMSAT-1 18 Sep 04:03:01 04:08:22 86° 104° (ESE) 04:13:40 436.925 FM
Oscar 19 18 Sep 04:10:45 04:13:41 15° 301° (WNW) 04:16:35 437.125 CW, 437.150 USB
AO-27 18 Sep 04:23:02 04:27:13 25° 296° (WNW) 04:31:24 436.795 MHz FM
RS-15 18 Sep 04:26:16 04:36:55 57° 114° (ESE) 04:47:25 29.354 - 29.394 USB, Beacon 29.352 USB
AO-7 18 Sep 04:36:23 04:44:07 41° 99° (E) 04:51:47 29.400 - 29.500 MHz
Uosat F 18 Sep 04:45:02 04:49:42 38° 98° (E) 04:54:21 435.120 FM
OPAL 18 Sep 04:46:10 04:51:20 72° 255° (WSW) 04:56:34 ?
Oscar 10/S400 18 Sep 04:51:54 05:29:00 13° 255° (WSW) 06:23:26 145.825 - 145.975 CW/USB, Beacon 145.810 USB
ISS 18 Sep 04:53:26 04:56:35 38° 337° (NNW) 04:59:45 145.800 FM
JAS-1B 18 Sep 04:55:42 04:59:22 17° 304° (NW) 05:02:56 435.800 - 435.900 CW/SSB
Gurwin Techsat 1B 18 Sep 05:05:34 05:09:36 23° 298° (WNW) 05:13:37 435.225 FM
STRAND 1 18 Sep 05:26:19 05:29:39 18° 61° (ENE) 05:32:59 ?
Hamsat 18 Sep 05:29:43 05:30:49 11° 88° (E) 05:31:54 145.90 MHz
SO-50 18 Sep 05:40:26 05:42:49 14° 32° (NNE) 05:45:12 436.795 FM
TMSAT-1 18 Sep 05:44:47 05:47:33 15° 302° (WNW) 05:50:19 436.925 FM
JAS-2 18 Sep 05:47:54 05:52:57 28° 95° (E) 05:58:29 435.800 - 435.900 CW/SSB, 435.910 FM
KITSAT 1 18 Sep 05:51:20 05:59:02 50° 247° (WSW) 06:06:41 435.175 FM
Uosat F 18 Sep 06:24:07 06:28:20 28° 295° (WNW) 06:32:33 435.120 FM
AO-7 18 Sep 06:29:10 06:37:00 49° 298° (WNW) 06:44:49 29.400 - 29.500 MHz
ISS 18 Sep 06:31:24 06:33:57 20° 357° (N) 06:36:29 145.800 FM
RS-15 18 Sep 06:38:57 06:49:29 49° 318° (NW) 07:00:03 29.354 - 29.394 USB, Beacon 29.352 USB
Hamsat 18 Sep 07:03:00 07:07:16 69° 285° (WNW) 07:11:27 145.90 MHz
STRAND 1 18 Sep 07:03:17 07:08:19 64° 258° (WSW) 07:13:24 ?
SO-50 18 Sep 07:19:34 07:24:20 61° 52° (NE) 07:29:09 436.795 FM
UOSAT-12 18 Sep 07:28:02 07:30:18 13° 31° (NNE) 07:32:34 437.025 FM, 437.400 FM
JAS-2 18 Sep 07:32:33 07:38:11 50° 290° (WNW) 07:44:31 435.800 - 435.900 CW/SSB, 435.910 FM
MaSat-1 18 Sep 07:37:57 07:40:22 14° 101° (E) 07:42:47 437.345 MHz
ISS 18 Sep 08:08:29 08:11:25 27° 17° (NNE) 08:14:20 145.800 FM
SO-67 18 Sep 08:08:48 08:12:16 76° 284° (WNW) 08:15:42 435.3500 MHz FM
AO-7 18 Sep 08:24:53 08:27:47 12° 320° (NW) 08:30:42 29.400 - 29.500 MHz
RS-15 18 Sep 08:56:50 09:05:22 25° 351° (N) 09:14:00 29.354 - 29.394 USB, Beacon 29.352 USB
SO-50 18 Sep 09:01:11 09:04:29 18° 250° (WSW) 09:07:47 436.795 FM
UOSAT-12 18 Sep 09:06:45 09:11:27 60° 52° (NE) 09:16:04 437.025 FM, 437.400 FM
HO-68 18 Sep 09:07:06 09:13:26 33° 96° (E) 09:19:45 435.675 MHz FM
MaSat-1 18 Sep 09:11:28 09:16:31 82° 297° (WNW) 09:21:30 437.345 MHz
ISS 18 Sep 09:45:03 09:48:22 68° 216° (SW) 09:51:40 145.800 FM
FUNcube-1 18 Sep 09:53:58 09:55:24 11° 88° (E) 09:56:50 145.950 - 145.970 MHz USB
Oscar 11 18 Sep 10:06:20 10:10:20 34° 97° (E) 10:14:16 145.825 FM, Beacon 2401.500 USB
UKube-1 18 Sep 10:21:13 10:25:34 67° 102° (ESE) 10:29:54 145.840 MHz, 145.915 MHz
UOSAT-12 18 Sep 10:48:00 10:51:08 18° 250° (WSW) 10:54:13 437.025 FM, 437.400 FM
MaSat-1 18 Sep 10:51:13 10:54:02 15° 315° (NW) 10:56:47 437.345 MHz
HO-68 18 Sep 10:54:28 11:01:22 52° 294° (WNW) 11:08:14 435.675 MHz FM
RS-15 18 Sep 11:12:54 11:22:24 32° 26° (NNE) 11:32:06 29.354 - 29.394 USB, Beacon 29.352 USB
FUNcube-1 18 Sep 11:27:42 11:32:21 78° 285° (WNW) 11:36:56 145.950 - 145.970 MHz USB
Oscar 11 18 Sep 11:42:53 11:46:20 23° 294° (WNW) 11:49:46 145.825 FM, Beacon 2401.500 USB
UKube-1 18 Sep 11:59:05 12:01:14 14° 299° (WNW) 12:03:23 145.840 MHz, 145.915 MHz
JAS-1B 18 Sep 12:02:00 12:06:24 16° 55° (NE) 12:10:26 435.800 - 435.900 CW/SSB
Sapphire 18 Sep 12:10:29 12:15:19 35° 111° (ESE) 12:20:11 437.095 MHz 1200 baud AX-25 AFSK
Oscar 19 18 Sep 12:10:48 12:14:12 18° 60° (ENE) 12:17:37 437.125 CW, 437.150 USB
AO-27 18 Sep 12:27:14 12:28:47 11° 56° (NE) 12:30:21 436.795 MHz FM
PCSat 18 Sep 12:37:03 12:42:23 63° 116° (ESE) 12:47:45 145.825 MHz
HO-68 18 Sep 12:45:37 12:47:27 11° 315° (NW) 12:49:17 435.675 MHz FM
Oscar 16 18 Sep 12:47:41 12:52:26 38° 68° (ENE) 12:57:12 437.025 USB, Beacon 2401.1428
Gurwin Techsat 1B 18 Sep 13:10:35 13:13:11 14° 57° (ENE) 13:15:47 435.225 FM
AO-Echo 18 Sep 13:13:01 13:17:03 28° 67° (ENE) 13:21:03 ?
RS-15 18 Sep 13:25:39 13:36:48 79° 54° (NE) 13:48:22 29.354 - 29.394 USB, Beacon 29.352 USB
ITAMSAT 1 18 Sep 13:28:10 13:32:53 37° 68° (ENE) 13:37:37 435.822 SSB
Uribyol 2 18 Sep 13:32:33 13:37:25 43° 69° (ENE) 13:42:19 436.500 FM
TMSAT-1 18 Sep 13:47:00 13:50:53 21° 62° (ENE) 13:54:46 436.925 FM
JAS-1B 18 Sep 13:47:27 13:56:05 73° 72° (ENE) 14:03:18 435.800 - 435.900 CW/SSB
Oscar 19 18 Sep 13:47:51 13:53:01 67° 258° (WSW) 13:58:13 437.125 CW, 437.150 USB
AO-7 18 Sep 13:48:55 13:53:20 16° 44° (NE) 13:57:45 29.400 - 29.500 MHz
Sapphire 18 Sep 13:53:40 13:58:41 38° 310° (NW) 14:03:45 437.095 MHz 1200 baud AX-25 AFSK
AO-27 18 Sep 14:02:16 14:07:25 77° 74° (ENE) 14:12:37 436.795 MHz FM
PCSat 18 Sep 14:21:53 14:26:14 24° 316° (NW) 14:30:37 145.825 MHz
Oscar 16 18 Sep 14:27:23 14:31:50 29° 265° (W) 14:36:20 437.025 USB, Beacon 2401.1428
Gurwin Techsat 1B 18 Sep 14:47:04 14:52:23 89° 255° (WSW) 14:57:44 435.225 FM
Oscar 10/S400 18 Sep 14:50:52 15:05:06 22° 145° (SE) 15:19:48 145.825 - 145.975 CW/USB, Beacon 145.810 USB
AO-Echo 18 Sep 14:51:31 14:55:45 32° 263° (W) 14:59:58 ?
ITAMSAT 1 18 Sep 15:08:01 15:12:26 28° 265° (W) 15:16:53 435.822 SSB
Uribyol 2 18 Sep 15:12:54 15:17:03 25° 266° (W) 15:21:16 436.500 FM
TMSAT-1 18 Sep 15:25:12 15:30:23 56° 260° (W) 15:35:36 436.925 FM
AO-7 18 Sep 15:36:22 15:44:29 62° 65° (ENE) 15:52:37 29.400 - 29.500 MHz
RS-15 18 Sep 15:39:00 15:48:07 31° 255° (WSW) 15:57:33 29.354 - 29.394 USB, Beacon 29.352 USB
JAS-1B 18 Sep 15:40:15 15:47:00 25° 267° (W) 15:52:59 435.800 - 435.900 CW/SSB
AO-27 18 Sep 15:45:02 15:47:31 14° 271° (W) 15:50:02 436.795 MHz FM
Uosat F 18 Sep 15:59:21 16:04:15 60° 72° (ENE) 16:09:11 435.120 FM
JAS-2 18 Sep 16:06:20 16:07:36 11° 55° (NE) 16:08:51 435.800 - 435.900 CW/SSB, 435.910 FM
Saudisat 1A 18 Sep 16:22:13 16:22:31 10° 107° (ESE) 16:22:49 436.775 MHz
Hamsat 18 Sep 16:25:00 16:26:02 11° 60° (ENE) 16:27:04 145.90 MHz
Gurwin Techsat 1B 18 Sep 16:31:25 16:33:05 11° 273° (W) 16:34:45 435.225 FM
OPAL 18 Sep 16:55:31 16:59:53 27° 97° (E) 17:04:10 ?
